Location: Newark
(44.3248°N, 23.7839°E)
Time: 09:37:12
(UTC+00:00)

UNISAT 6 - Pass Details

Date: 25 April 2024
Orbit: 593 x 667 km, 97.7° (Epoch: 29 May)

Event Time Altitude Azimuth Distance (km) Brightness Sun altitude
Rises 01:29:44 0° 139° (SE) 2,919 ? -18.4°
Reaches altitude 10° 01:32:09 10° 128° (SE) 2,002 ? -18.1°
Maximum altitude 01:35:54 29° 68° (ENE) 1,140 ? -17.6°
Drops below altitude 10° 01:39:37 10° 9° (N) 1,977 ? -17.1°
Sets 01:41:59 0° 358° (N) 2,875 ? -16.8°
